Location: Colonia Mina de C?rbuni
(46.1667°N, 22.7167°E)
Time: 18:50:16
(UTC+00:00)

Meteor 1-27 - Visible Passes

Search period start: 01 October 2023 00:00
Search period end: 11 October 2023 00:00
Orbit: 838 x 891 km, 81.3° (Epoch: 30 September)

Date Brightness Start Highest point End Pass type
(mag) Time Alt. Az. Time Alt. Az. Time Alt. Az.
01 Oct 6.5 00:56:15 14° NNW 00:56:15 14° NNW 00:57:27 10° NNW visible
01 Oct 6.9 23:06:16 14° NNE 23:06:16 14° NNE 23:07:04 10° NNE visible
02 Oct 6.6 00:48:35 14° NNW 00:48:35 14° NNW 00:49:33 10° NNW visible
02 Oct 7.0 22:58:35 13° NNE 22:58:35 13° NNE 22:59:10 10° NNE visible
03 Oct 6.7 00:40:53 13° NNW 00:40:53 13° NNW 00:41:39 10° NNW visible
03 Oct 7.1 22:50:53 12° NNE 22:50:53 12° NNE 22:51:16 10° NNE visible
04 Oct 6.8 00:33:11 12° NNW 00:33:11 12° NNW 00:33:45 10° NNW visible
04 Oct 7.1 22:43:11 11° NNE 22:43:11 11° NNE 22:43:21 10° NNE visible
05 Oct 6.9 00:25:29 11° NNW 00:25:29 11° NNW 00:25:52 10° NNW visible
06 Oct 6.9 00:17:46 11° NNW 00:17:46 11° NNW 00:17:58 10° NNW visible
07 Oct 7.0 00:10:03 10° NNW 00:10:03 10° NNW 00:10:04 10° NNW visible
